WZZ6UP LOWW-EDFH

Flight info

Callsign WZZ6UP
Flight time N/A
Altitude 34000
Route OTGA2C/29 MEDIX DCT RENKA/N0436F360 L610 STAUB/N0380F240 L610 UPALA/N0435F360 Z744 LEPSA/N0379F240 Z104 OLGIL OLGIL4K
Aircraft A320/M-SDE3FGHIRWY/LB1

Departure

Time 2026-04-24 20:05
Airport Vienna International Airport (LOWW)

Arrival

Time N/A
Airport Frankfurt-Hahn Airport (EDFH)
Time Latitude Longitude Altitude Speed Heading
2026-04-24 19:23 48.11628 16.57039 603 ft 0 kts 27°
2026-04-24 19:54 48.11618 16.57032 602 ft 2 kts 27°
2026-04-24 19:54 48.11603 16.57020 602 ft 2 kts 27°
2026-04-24 19:54 48.11587 16.57008 602 ft 3 kts 40°
2026-04-24 19:54 48.11576 16.56988 602 ft 3 kts 77°
2026-04-24 19:55 48.11575 16.56979 602 ft 3 kts 90°
2026-04-24 19:55 48.11577 16.56957 602 ft 0 kts 118°
2026-04-24 19:57 48.11575 16.56962 602 ft 2 kts 118°
2026-04-24 19:57 48.11564 16.56985 603 ft 4 kts 125°
2026-04-24 19:58 48.11544 16.57028 603 ft 6 kts 122°
2026-04-24 19:58 48.11522 16.57088 619 ft 7 kts 119°
2026-04-24 19:58 48.11501 16.57152 618 ft 7 kts 115°
2026-04-24 19:58 48.11480 16.57217 614 ft 7 kts 115°
2026-04-24 19:59 48.11454 16.57301 619 ft 10 kts 115°
2026-04-24 19:59 48.11406 16.57386 611 ft 12 kts 175°
2026-04-24 19:59 48.11352 16.57358 611 ft 0 kts 207°
2026-04-24 20:00 48.11343 16.57352 621 ft 4 kts 207°
2026-04-24 20:00 48.11295 16.57315 616 ft 11 kts 205°
2026-04-24 20:01 48.11212 16.57288 618 ft 13 kts 153°
2026-04-24 20:01 48.11160 16.57425 604 ft 18 kts 115°
2026-04-24 20:01 48.11122 16.57544 615 ft 20 kts 116°
2026-04-24 20:01 48.11101 16.57607 608 ft 0 kts 115°
2026-04-24 20:02 48.11096 16.57620 616 ft 5 kts 126°
2026-04-24 20:02 48.11048 16.57642 603 ft 10 kts 189°
2026-04-24 20:02 48.11028 16.57630 603 ft 0 kts 204°
2026-04-24 20:03 48.11026 16.57629 603 ft 1 kts 205°
2026-04-24 20:04 48.10999 16.57611 603 ft 7 kts 204°
2026-04-24 20:04 48.10930 16.57559 612 ft 13 kts 224°
2026-04-24 20:04 48.10934 16.57474 612 ft 0 kts 298°
2026-04-24 20:04 48.10936 16.57469 611 ft 0 kts 298°
2026-04-24 20:05 48.10941 16.57456 613 ft 15 kts 298°
2026-04-24 20:05 48.11113 16.56924 619 ft 94 kts 295°
2026-04-24 20:05 48.11492 16.55763 614 ft 151 kts 295°
2026-04-24 20:05 48.11952 16.54311 1209 ft 152 kts 295°
2026-04-24 20:06 48.12087 16.52778 1872 ft 155 kts 250°
2026-04-24 20:06 48.11395 16.51447 2306 ft 176 kts 217°
2026-04-24 20:06 48.10346 16.50283 2732 ft 199 kts 218°
2026-04-24 20:06 48.09204 16.48965 3298 ft 212 kts 218°
2026-04-24 20:07 48.08431 16.48061 3797 ft 214 kts 218°
2026-04-24 20:07 48.06855 16.46162 4588 ft 226 kts 220°
2026-04-24 20:07 48.05597 16.44544 5007 ft 251 kts 221°
2026-04-24 20:07 48.04237 16.42757 5664 ft 267 kts 221°
2026-04-24 20:08 48.02829 16.40902 6581 ft 272 kts 221°
2026-04-24 20:08 48.01418 16.39043 7493 ft 276 kts 221°